Wind_Speed
32 33 33 33 34 35 36 36 37 38 39 40 41 41 41 42 43 43 44 44 45 44 45 46 46 46 45 45 44 44 45 45 46 46 46 46 46 45 44 44 44 43 42 42
31 31 31 31 31 32 32 34 35 37 38 39 40 40 40 42 42 43 44 44 44 44 44 45 46 46 45 45 44 44 44 45 44 44 45 45 46 45 45 45 45 44 44 43
29 29 29 30 30 30 30 31 32 34 35 37 39 38 38 40 41 41 42 42 43 43 44 45 46 46 46 45 45 45 45 45 45 45 45 45 46 46 46 45 45 45 45 44
28 28 28 29 30 30 29 30 31 32 33 34 34 36 34 36 37 38 39 41 42 42 43 44 45 46 46 45 45 45 44 45 46 46 45 45 45 45 44 45 45 45 45 45
26 26 27 28 29 29 29 29 30 31 32 33 33 35 33 33 34 35 37 39 41 42 42 43 43 45 45 45 45 45 45 45 46 46 46 46 45 45 45 45 45 45 45 46
25 25 26 27 27 28 28 28 29 30 31 32 31 33 32 31 31 33 36 38 39 41 41 42 42 43 43 43 43 44 45 45 46 46 46 45 45 45 45 45 45 45 44 45
24 24 25 25 26 26 26 26 27 28 29 30 30 31 31 30 30 32 34 36 37 39 40 41 41 42 42 42 42 43 44 45 45 45 45 45 45 45 45 45 45 44 44 44
23 23 23 24 24 24 24 25 25 27 28 29 29 30 29 29 30 30 32 34 35 37 38 40 41 42 41 41 41 43 43 44 44 44 44 44 44 45 44 44 43 43 42 42
23 22 22 23 22 23 23 23 24 26 28 28 28 29 28 28 29 29 31 31 32 33 34 36 39 40 41 40 40 40 42 42 42 43 43 42 42 42 42 42 42 42 42 42
22 22 21 21 21 21 22 22 23 24 26 27 27 27 26 26 27 28 29 29 29 29 31 33 36 39 40 40 41 41 40 41 41 42 42 42 42 42 42 42 41 42 42 42
19 19 19 20 21 21 21 22 23 24 25 26 27 26 25 25 25 26 26 26 26 27 28 30 33 36 37 38 40 40 39 41 41 41 42 41 41 41 42 42 42 42 41 41
17 18 19 20 20 21 21 22 22 24 25 26 27 26 24 24 24 24 24 23 24 25 27 29 31 33 34 36 38 40 39 40 41 41 42 41 41 42 42 42 42 42 41 40
19 19 20 20 20 20 21 21 23 24 25 25 26 25 24 24 23 24 24 23 24 24 25 28 30 31 33 34 36 38 39 39 39 39 41 41 41 41 41 41 42 42 41 41
20 20 20 20 21 21 20 20 22 23 24 24 24 23 23 23 24 24 24 24 24 24 25 27 28 30 33 34 35 36 37 38 39 39 40 40 41 41 40 39 40 41 41 41
20 20 20 20 20 21 20 20 21 22 23 23 23 23 22 23 23 23 23 24 23 23 23 26 28 29 31 32 33 34 37 38 38 38 38 38 39 40 40 40 40 40 41 42
20 20 20 20 20 20 20 20 21 21 22 22 22 22 22 22 22 23 23 23 22 22 23 25 26 28 29 30 31 32 34 35 37 37 37 38 39 39 40 40 40 40 41 42
20 20 20 20 20 19 19 20 20 20 21 21 22 22 22 22 22 23 23 23 23 24 24 25 26 27 28 29 29 30 33 34 36 36 37 38 39 39 40 40 40 41 42 42
19 19 19 19 20 19 19 19 19 19 20 20 21 22 22 22 22 22 22 23 24 25 26 26 25 25 26 27 29 29 31 32 33 34 35 37 39 39 40 40 41 42 42 43
19 20 20 19 19 19 18 18 18 19 19 20 21 21 22 22 21 21 21 21 22 24 24 25 25 24 25 27 28 28 29 30 31 32 33 35 37 38 40 40 41 42 42 42
19 19 20 19 20 19 18 18 18 19 19 19 20 20 20 21 21 20 20 20 21 22 23 24 25 25 25 26 26 27 28 29 30 31 32 33 34 35 35 37 38 39 40 40
18 18 19 19 19 19 18 18 19 19 19 19 20 20 21 21 21 20 20 20 21 21 22 23 24 25 25 26 27 27 26 26 27 28 29 31 32 33 34 35 37 38 38 39
18 18 18 18 18 18 18 19 19 20 20 20 20 20 21 21 21 21 20 21 21 22 23 23 24 24 24 26 26 26 25 25 25 26 27 28 30 31 32 33 35 36 37 38
18 18 18 18 18 19 19 19 20 20 21 21 21 21 21 21 22 22 22 23 23 24 25 25 25 25 26 26 26 26 26 26 27 27 26 27 29 30 31 32 34 35 36 36
18 18 18 19 19 19 20 20 20 21 21 22 22 21 21 22 22 23 23 24 25 25 25 26 25 25 26 27 27 27 26 27 27 27 27 27 28 29 30 32 32 33 34 35
18 18 18 18 19 20 20 21 22 22 21 22 21 21 21 22 22 23 22 23 23 24 24 24 24 24 24 24 25 26 26 26 26 25 26 27 27 29 29 30 30 31 32 33
17 18 18 18 19 20 21 22 23 22 22 22 21 21 22 22 22 22 22 21 21 22 22 22 21 22 22 23 24 25 25 25 25 25 26 27 27 28 28 29 29 30 30 31
Wind_Direction
271 269 269 268 268 268 266 264 262 261 260 261 261 261 259 258 257 257 255 253 252 252 251 249 249 247 246 246 246 246 246 248 248 247 247 247 247 248 247 248 249 250 252 253
272 271 270 268 269 269 268 266 264 262 262 263 264 262 260 259 258 257 255 254 253 252 251 249 248 246 247 246 246 246 246 246 247 246 246 247 247 248 248 248 249 250 251 253
274 273 271 269 270 270 269 267 266 265 264 266 267 264 260 260 259 258 256 255 254 253 251 250 248 247 247 246 246 246 247 247 247 246 246 247 246 247 247 248 249 249 250 252
272 270 270 271 271 272 271 269 269 270 268 269 268 266 260 260 259 259 257 256 255 253 251 250 249 247 246 246 245 244 246 247 247 246 246 246 247 247 248 249 248 249 250 251
273 271 270 272 273 273 273 271 272 270 269 269 268 267 263 262 261 260 258 257 256 254 252 250 249 247 245 245 244 244 245 246 246 245 245 246 247 248 248 248 248 250 251 250
274 274 273 274 275 275 274 273 273 271 270 270 270 270 266 265 264 261 259 259 257 255 252 250 248 246 245 244 243 244 244 246 246 244 245 245 247 247 248 248 248 249 251 251
274 274 275 275 274 274 273 274 275 274 272 273 271 270 269 268 266 264 264 262 258 256 253 249 247 245 244 242 242 244 244 245 245 245 244 245 245 246 247 248 248 249 250 251
274 274 275 275 276 274 274 274 276 276 277 276 273 271 270 269 269 269 268 266 262 257 254 250 247 245 243 242 243 243 244 245 245 245 244 244 244 245 246 247 247 248 249 250
277 275 274 274 274 274 276 275 278 276 276 277 277 274 274 272 271 271 269 267 261 258 254 250 246 244 242 242 243 244 245 245 244 244 242 243 244 244 245 245 245 247 249 250
279 276 273 271 271 273 275 279 280 280 280 280 280 280 280 276 274 272 270 265 260 258 254 250 245 243 243 243 243 244 246 244 243 241 240 243 244 244 244 245 245 247 249 250
281 279 276 274 274 276 276 278 279 280 280 282 283 282 282 282 279 276 272 267 262 258 254 250 246 244 245 246 244 245 246 245 243 242 241 242 242 243 244 245 245 246 248 250
279 279 281 281 281 280 277 277 277 278 280 280 282 283 284 282 278 275 271 265 262 258 253 249 247 246 247 247 245 245 245 245 244 243 242 243 242 244 245 245 245 245 247 249
282 280 283 283 283 281 279 275 276 277 278 280 282 283 283 280 276 273 270 265 263 261 257 251 249 249 249 249 248 247 246 245 244 243 243 243 244 246 245 245 245 244 246 248
282 280 281 283 284 283 282 279 278 278 279 280 281 282 280 278 273 272 269 267 266 263 259 255 252 251 251 251 251 249 247 246 246 245 244 244 243 244 245 245 246 246 248 250
282 281 281 281 282 281 282 282 281 280 282 281 283 281 279 277 274 272 268 267 266 263 260 256 255 254 254 254 253 252 250 248 246 245 245 243 243 244 245 245 246 247 248 249
282 282 282 281 282 280 281 282 282 283 283 282 283 283 281 278 277 274 270 269 267 265 260 257 257 257 255 254 254 253 250 246 246 245 244 243 244 245 246 245 247 248 249 250
282 284 284 283 283 281 279 281 283 285 283 282 283 284 283 280 278 275 273 270 268 265 262 260 259 259 258 255 255 253 251 248 246 246 244 243 244 246 246 246 248 250 250 251
280 282 285 285 283 282 285 284 283 286 287 287 286 284 284 282 279 277 274 272 268 266 267 264 262 260 258 258 256 255 253 249 246 246 245 245 246 248 249 249 249 249 249 251
281 281 284 285 284 284 285 287 287 288 287 287 287 286 285 283 281 280 277 272 268 266 266 264 263 263 262 262 261 259 253 250 248 248 249 248 247 247 248 248 248 248 249 251
279 280 281 283 286 287 288 289 290 290 288 289 288 286 285 284 283 280 277 274 271 269 267 265 262 261 263 262 260 260 257 254 251 251 251 251 250 248 248 248 248 248 248 249
279 280 279 281 283 286 287 290 292 291 292 291 288 286 284 284 285 283 280 277 274 271 268 266 264 263 263 262 261 260 258 255 254 254 253 253 253 251 250 250 249 250 250 252
279 279 279 281 283 287 289 287 288 290 290 291 291 288 284 284 283 282 281 279 275 272 269 268 267 265 265 263 261 260 258 257 256 256 255 253 253 253 252 253 251 252 253 254
278 279 279 281 284 286 288 288 287 288 290 290 290 289 286 285 284 282 280 278 275 272 270 268 267 266 266 265 262 260 260 260 257 258 257 255 255 254 254 254 254 254 254 254
280 281 280 280 282 285 287 288 289 289 290 290 291 290 287 287 287 284 281 278 276 273 271 269 267 266 265 264 261 259 260 262 261 260 258 258 258 258 258 257 257 256 256 256
279 280 281 282 282 283 286 287 288 290 290 290 289 288 288 289 289 287 284 281 277 274 270 268 266 265 264 263 262 261 261 262 263 263 262 262 261 261 260 259 258 258 258 259
278 279 281 284 284 285 288 287 286 287 288 289 288 287 288 289 288 287 286 283 279 276 272 268 265 265 265 265 265 262 262 261 262 263 263 263 263 262 261 260 260 260 260 260
Height
5676 5676 5675 5675 5675 5675 5674 5674 5675 5676 5675 5676 5677 5679 5681 5680 5680 5681 5683 5684 5686 5688 5690 5691 5694 5697 5699 5702 5705 5708 5711 5714 5716 5719 5722 5725 5729 5732 5736 5739 5742 5744 5746 5748
5668 5667 5667 5666 5666 5665 5665 5665 5665 5666 5665 5665 5666 5667 5669 5668 5669 5670 5671 5672 5675 5677 5678 5680 5682 5685 5688 5691 5694 5697 5700 5702 5705 5708 5711 5714 5717 5721 5724 5728 5730 5733 5735 5737
5659 5660 5658 5658 5657 5657 5656 5656 5656 5656 5656 5655 5656 5657 5658 5657 5657 5658 5659 5660 5662 5664 5666 5668 5670 5673 5676 5680 5683 5686 5689 5691 5694 5697 5700 5703 5706 5709 5712 5716 5719 5722 5725 5727
5651 5651 5650 5649 5649 5648 5648 5648 5648 5647 5647 5646 5646 5645 5648 5647 5647 5647 5648 5648 5650 5652 5654 5656 5658 5661 5664 5668 5671 5674 5677 5680 5683 5686 5689 5692 5695 5699 5702 5705 5708 5711 5713 5716
5643 5643 5642 5641 5641 5640 5640 5640 5640 5639 5638 5637 5637 5635 5638 5637 5637 5636 5636 5637 5638 5639 5641 5644 5646 5649 5652 5655 5659 5663 5666 5669 5671 5675 5678 5681 5684 5688 5691 5693 5696 5699 5702 5704
5635 5635 5634 5634 5633 5632 5632 5632 5631 5630 5629 5629 5629 5626 5627 5627 5627 5626 5626 5625 5626 5627 5629 5631 5634 5636 5640 5643 5647 5651 5654 5657 5660 5664 5667 5670 5673 5676 5679 5682 5685 5688 5691 5693
5628 5627 5626 5626 5625 5625 5624 5624 5623 5621 5620 5620 5620 5617 5619 5618 5617 5616 5615 5614 5614 5615 5616 5619 5622 5625 5628 5632 5636 5640 5643 5646 5649 5652 5656 5659 5662 5665 5668 5671 5674 5677 5680 5682
5621 5620 5619 5618 5618 5617 5616 5616 5616 5614 5612 5612 5611 5609 5611 5610 5608 5606 5605 5603 5602 5603 5604 5607 5610 5614 5618 5622 5625 5628 5632 5635 5638 5641 5644 5647 5651 5654 5657 5660 5663 5666 5669 5671
5614 5614 5613 5612 5611 5610 5609 5609 5609 5607 5605 5603 5602 5602 5602 5601 5599 5597 5596 5594 5593 5593 5593 5596 5599 5603 5608 5612 5615 5618 5621 5624 5627 5630 5634 5637 5640 5643 5646 5650 5653 5656 5659 5661
5607 5607 5606 5605 5604 5604 5604 5602 5601 5599 5597 5596 5595 5595 5594 5593 5591 5589 5587 5586 5585 5585 5585 5587 5590 5594 5598 5602 5605 5608 5611 5614 5617 5620 5623 5626 5629 5632 5636 5639 5642 5645 5648 5650
5600 5601 5600 5599 5598 5598 5597 5596 5594 5593 5592 5590 5588 5590 5587 5585 5583 5582 5580 5579 5578 5578 5579 5580 5583 5585 5589 5592 5595 5598 5601 5604 5607 5610 5613 5616 5619 5622 5625 5628 5631 5634 5637 5640
5595 5595 5594 5593 5592 5591 5590 5590 5588 5588 5586 5583 5582 5585 5580 5578 5576 5575 5574 5573 5572 5572 5573 5574 5576 5578 5580 5582 5585 5588 5591 5594 5597 5600 5603 5606 5608 5610 5613 5617 5620 5623 5626 5629
5589 5589 5588 5587 5588 5586 5584 5583 5582 5581 5579 5577 5576 5578 5574 5571 5569 5568 5568 5567 5566 5566 5566 5567 5569 5570 5572 5574 5575 5578 5581 5584 5587 5590 5592 5595 5598 5600 5603 5606 5609 5612 5616 5619
5584 5583 5583 5583 5580 5579 5578 5578 5576 5574 5572 5571 5570 5570 5568 5565 5563 5562 5561 5561 5560 5560 5560 5561 5562 5563 5564 5565 5567 5569 5571 5574 5577 5580 5582 5585 5587 5590 5593 5596 5599 5602 5606 5608
5578 5578 5577 5576 5574 5573 5572 5571 5570 5568 5566 5565 5564 5562 5561 5558 5557 5556 5555 5555 5554 5554 5554 5554 5555 5556 5556 5557 5558 5560 5562 5564 5567 5569 5572 5574 5577 5580 5583 5586 5589 5592 5595 5598
5572 5572 5571 5570 5569 5567 5566 5565 5564 5562 5560 5559 5557 5556 5554 5552 5551 5550 5549 5548 5547 5547 5547 5548 5548 5548 5548 5549 5550 5551 5552 5554 5557 5559 5562 5564 5567 5570 5572 5576 5579 5582 5585 5588
5567 5566 5565 5564 5563 5561 5561 5560 5558 5556 5555 5553 5551 5550 5548 5546 5545 5543 5542 5542 5541 5541 5541 5540 5540 5540 5540 5540 5541 5542 5543 5545 5547 5550 5552 5554 5557 5559 5562 5565 5568 5572 5575 5578
5561 5560 5558 5558 5558 5556 5558 5554 5552 5551 5549 5547 5545 5543 5541 5540 5538 5537 5536 5535 5535 5534 5533 5533 5533 5533 5533 5533 5533 5533 5534 5535 5538 5540 5542 5544 5546 5549 5552 5554 5558 5561 5564 5567
5555 5554 5553 5552 5550 5550 5551 5548 5546 5545 5544 5541 5539 5537 5535 5534 5532 5531 5530 5529 5528 5528 5527 5526 5526 5526 5526 5526 5525 5525 5526 5527 5529 5531 5532 5534 5536 5539 5541 5544 5547 5549 5552 5556
5549 5548 5548 5546 5545 5544 5545 5543 5540 5540 5538 5536 5533 5531 5529 5528 5527 5527 5525 5523 5522 5521 5520 5520 5519 5519 5519 5519 5518 5518 5519 5520 5521 5522 5524 5525 5527 5529 5531 5534 5536 5539 5542 5544
5544 5543 5542 5540 5539 5539 5539 5537 5535 5535 5533 5530 5527 5525 5524 5522 5521 5520 5519 5517 5516 5515 5514 5513 5513 5512 5512 5512 5512 5512 5512 5513 5514 5514 5515 5517 5518 5520 5522 5524 5527 5529 5531 5534
5538 5537 5536 5535 5534 5536 5532 5531 5530 5528 5526 5524 5522 5520 5518 5517 5515 5514 5512 5511 5510 5509 5508 5507 5506 5506 5505 5505 5505 5505 5505 5506 5506 5507 5508 5509 5510 5512 5514 5515 5517 5519 5522 5524
5532 5532 5530 5530 5531 5528 5526 5525 5523 5521 5520 5518 5516 5514 5512 5510 5509 5507 5506 5504 5503 5502 5501 5500 5499 5499 5498 5497 5497 5498 5498 5498 5499 5500 5500 5501 5502 5503 5505 5506 5508 5510 5511 5513
5526 5525 5524 5524 5524 5522 5520 5519 5517 5515 5514 5512 5510 5508 5506 5504 5502 5500 5499 5497 5495 5494 5493 5492 5492 5491 5491 5490 5490 5490 5491 5491 5491 5492 5493 5494 5494 5495 5496 5497 5498 5500 5501 5503
5520 5519 5518 5517 5517 5516 5515 5513 5511 5509 5507 5505 5503 5502 5500 5498 5495 5493 5491 5490 5488 5486 5485 5485 5484 5484 5483 5482 5483 5483 5483 5483 5484 5485 5485 5486 5487 5487 5488 5489 5490 5491 5492 5493
5514 5513 5512 5512 5511 5509 5508 5506 5504 5503 5501 5499 5497 5495 5493 5491 5489 5487 5485 5483 5481 5479 5478 5478 5477 5477 5476 5476 5476 5476 5476 5476 5477 5478 5478 5479 5479 5479 5480 5481 5482 5482 5483 5484